CW3467 Sant Marti de Canals ES current weather conditions

sailwx.info

Wind from 097 at 1 knots gusting 4

Air temperature 26.7° C
Dewpoint 12.7° C

Last reported at 2014-Jul-23 19:49 UTC.
Time now 2014-Jul-23 20:14 UTC

Location: N 42°14' E 000°59'.
View on Google Maps.

See reports from other nearby stations

  
Tides and Currents Weather Stations Pressure Air Temp Water Temp Dewpoint Dewpoint Depression Visibility Wind Speed Wind Dir Waves Ship Positions
date/time (UTC)wind fromknots sea level pressurealtimeterstation pressurevisibilityair tempwater tempwave heightnotes
2014-Jul-23 19:49 097 1 gusting 4 26.7
2014-Jul-23 19:32 117 2 gusting 6 26.7
2014-Jul-23 19:18 152 2 gusting 4 27.2
2014-Jul-23 19:01 153 1 gusting 6 27.8
2014-Jul-23 18:46 219 2 gusting 6 28.9
2014-Jul-23 18:30 222 4 gusting 7 29.4
2014-Jul-23 18:15 212 2 gusting 6 29.4
2014-Jul-23 18:00 212 3 gusting 7 30.0
2014-Jul-23 17:29 233 3 gusting 7 30.6
2014-Jul-23 17:14 008 2 gusting 6 30.6
2014-Jul-23 16:57 207 3 gusting 6 31.1
2014-Jul-23 16:42 214 2 gusting 8 31.1
2014-Jul-23 16:28 022 2 gusting 10 31.1
2014-Jul-23 16:11 191 4 gusting 8 31.1
2014-Jul-23 15:56 209 3 gusting 8 31.1
2014-Jul-23 15:40 150 2 gusting 6 31.1
2014-Jul-23 15:25 236 1 gusting 5 31.7
2014-Jul-23 15:09 197 3 gusting 8 31.7
2014-Jul-23 14:54 243 1 gusting 6 31.7
2014-Jul-23 14:39 197 4 gusting 8 31.7
2014-Jul-23 14:23 217 3 gusting 6 31.7
2014-Jul-23 14:07 224 2 gusting 7 31.1
2014-Jul-23 13:52 266 3 gusting 6 31.1
2014-Jul-23 13:36 257 2 gusting 7 31.1
2014-Jul-23 13:21 269 4 gusting 12 30.6
2014-Jul-23 13:06 193 4 gusting 7 30.6
2014-Jul-23 12:50 285 0 gusting 9 30.0
2014-Jul-23 12:34 205 3 gusting 9 30.6
2014-Jul-23 12:19 224 2 gusting 5 30.6
2014-Jul-23 12:03 217 4 gusting 8 29.4
2014-Jul-23 11:48 204 0 gusting 7 28.9
2014-Jul-23 11:32 231 2 gusting 8 29.4
2014-Jul-23 11:18 279 0 gusting 6 28.3
2014-Jul-23 11:04 242 27.8
2014-Jul-23 10:47 257 1 gusting 5 28.3
2014-Jul-23 10:31 230 1 gusting 4 27.8
2014-Jul-23 10:15 117 0 gusting 3 27.2
2014-Jul-23 10:00 328 26.1
2014-Jul-23 09:45 207 0 gusting 3 26.7
2014-Jul-23 09:28 210 26.1
2014-Jul-23 09:13 213 25.6
2014-Jul-23 08:58 136 1 gusting 3 25.0
2014-Jul-23 08:42 246 25.0
2014-Jul-23 08:26 267 23.3
2014-Jul-23 08:12 316 23.3
2014-Jul-23 07:55 225 22.8
2014-Jul-23 07:40 217 21.7
2014-Jul-23 07:25 181 20.6
2014-Jul-23 07:09 190 19.4
2014-Jul-23 06:53 160 1 gusting 3 17.8
2014-Jul-23 06:37 150 0 gusting 3 17.2
2014-Jul-23 06:23 131 1 gusting 4 16.7
2014-Jul-23 06:07 124 16.7
2014-Jul-23 05:51 133 1 gusting 4 16.1
2014-Jul-23 05:36 354 16.1
2014-Jul-23 05:21 150 2 gusting 4 16.1
2014-Jul-23 05:06 162 0 gusting 2 16.7
2014-Jul-23 04:50 107 0 gusting 2 16.1
2014-Jul-23 04:34 096 16.7
2014-Jul-23 04:18 084 1 gusting 3 16.7
2014-Jul-23 04:03 186 0 gusting 3 16.7
2014-Jul-23 03:48 155 1 gusting 3 17.2
2014-Jul-23 03:32 141 1 gusting 2 17.2
2014-Jul-23 03:17 124 17.2
2014-Jul-23 03:02 120 0 gusting 2 17.2
2014-Jul-23 02:46 098 0 gusting 2 17.8
2014-Jul-23 02:30 139 18.3
2014-Jul-23 02:15 158 0 gusting 3 18.9
2014-Jul-23 02:00 101 0 gusting 3 18.9
2014-Jul-23 01:44 096 0 gusting 3 18.3
2014-Jul-23 01:28 075 19.4
2014-Jul-23 01:13 134 19.4
2014-Jul-23 00:58 317 20.0
2014-Jul-23 00:43 103 19.4
2014-Jul-23 00:26 098 0 gusting 2 20.0
2014-Jul-23 00:11 094 20.0
2014-Jul-22 23:56 359 20.0
2014-Jul-22 23:41 330 20.6
2014-Jul-22 23:25 312 20.6
2014-Jul-22 23:09 274 0 gusting 2 21.1
2014-Jul-22 22:53 250 21.7
2014-Jul-22 22:39 020 22.2
2014-Jul-22 22:23 029 22.2
2014-Jul-22 22:07 135 0 gusting 4 22.2
2014-Jul-22 21:52 125 22.2
2014-Jul-22 21:36 088 22.8
2014-Jul-22 21:21 224 22.8
2014-Jul-22 21:06 222 0 gusting 3 23.9
2014-Jul-22 20:51 026 3 gusting 6 24.4
2014-Jul-22 20:34 014 4 gusting 8 25.0
2014-Jul-22 20:20 350 2 gusting 7 25.0
2014-Jul-22 20:03 081 1 gusting 4 25.0
2014-Jul-22 19:48 035 3 gusting 6 25.6
2014-Jul-22 19:32 079 1 gusting 5 25.6
2014-Jul-22 19:17 030 25.6
2014-Jul-22 19:01 239 26.7
2014-Jul-22 18:46 218 2 gusting 4 27.2
2014-Jul-22 18:31 219 3 gusting 9 27.8
2014-Jul-22 18:15 219 4 gusting 9 28.3
2014-Jul-22 18:00 215 3 gusting 8 28.9
2014-Jul-22 17:44 215 4 gusting 6 28.9
2014-Jul-22 17:29 219 2 gusting 6 29.4
2014-Jul-22 17:14 197 5 gusting 11 29.4
2014-Jul-22 16:59 218 4 gusting 7 29.4
2014-Jul-22 16:42 224 2 gusting 5 30.0
2014-Jul-22 16:28 233 3 gusting 8 29.4
2014-Jul-22 16:12 215 5 gusting 9 29.4
2014-Jul-22 15:56 198 5 gusting 11 30.0
2014-Jul-22 15:40 249 2 gusting 8 30.0
2014-Jul-22 15:25 243 4 gusting 12 30.0
2014-Jul-22 15:09 172 4 gusting 11 30.0
2014-Jul-22 14:55 279 2 gusting 8 30.6
2014-Jul-22 14:39 281 3 gusting 7 30.6
2014-Jul-22 14:23 250 5 gusting 8 30.0
2014-Jul-22 14:08 204 2 gusting 6 30.6
2014-Jul-22 13:53 231 1 gusting 10 30.0
2014-Jul-22 13:37 221 2 gusting 8 30.6
2014-Jul-22 13:22 186 4 gusting 6 30.0
2014-Jul-22 13:06 250 3 gusting 7 29.4
2014-Jul-22 12:50 198 3 gusting 6 29.4
2014-Jul-22 12:34 200 2 gusting 6 29.4
2014-Jul-22 12:20 253 2 gusting 7 28.9
2014-Jul-22 12:03 233 1 gusting 6 28.9
2014-Jul-22 11:49 235 2 gusting 6 28.3
2014-Jul-22 11:32 167 1 gusting 6 27.8
2014-Jul-22 11:17 229 1 gusting 6 27.8
2014-Jul-22 11:02 174 2 gusting 6 27.2
2014-Jul-22 10:46 225 0 gusting 4 27.2
2014-Jul-22 10:31 262 0 gusting 5 26.7
2014-Jul-22 10:15 211 0 gusting 3 26.7
2014-Jul-22 10:00 125 0 gusting 4 25.6
2014-Jul-22 09:45 207 0 gusting 5 25.0
2014-Jul-22 09:29 219 0 gusting 4 24.4
2014-Jul-22 09:14 193 0 gusting 4 24.4
2014-Jul-22 08:58 257 23.9
2014-Jul-22 08:42 144 23.3
2014-Jul-22 08:26 198 0 gusting 3 22.2
2014-Jul-22 08:11 259 22.2
2014-Jul-22 07:56 257 21.1
2014-Jul-22 07:41 240 22.2
2014-Jul-22 07:25 210 20.6
2014-Jul-22 07:09 222 18.9
2014-Jul-22 06:53 233 16.7
2014-Jul-22 06:39 233 16.7
2014-Jul-22 06:23 072 16.1
2014-Jul-22 06:07 028 15.0
2014-Jul-22 05:52 359 14.4
2014-Jul-22 05:37 249 14.4
2014-Jul-22 05:21 039 0 gusting 2 14.4
2014-Jul-22 05:06 360 14.4
2014-Jul-22 04:50 150 14.4
2014-Jul-22 04:34 134 0 gusting 2 15.0
2014-Jul-22 04:19 089 0 gusting 1 15.6
2014-Jul-22 04:04 011 15.0
2014-Jul-22 03:48 071 15.0
2014-Jul-22 03:33 129 15.6
2014-Jul-22 03:17 063 15.6
2014-Jul-22 03:02 093 16.1
2014-Jul-22 02:46 149 0 gusting 2 16.7
2014-Jul-22 02:31 123 1 gusting 2 16.7
2014-Jul-22 02:16 082 16.7
2014-Jul-22 02:00 096 16.7
2014-Jul-22 01:44 096 1 gusting 2 17.2
2014-Jul-22 01:29 212 17.2
2014-Jul-22 01:13 094 0 gusting 2 17.8
2014-Jul-22 00:58 134 17.8
2014-Jul-22 00:42 110 0 gusting 2 17.2
2014-Jul-22 00:27 119 1 gusting 3 17.2
2014-Jul-22 00:11 135 0 gusting 4 17.8
2014-Jul-21 23:56 109 18.3
2014-Jul-21 23:40 158 18.3
2014-Jul-21 23:25 134 0 gusting 4 19.4
2014-Jul-21 23:09 328 1 gusting 6 20.6
2014-Jul-21 22:55 346 2 gusting 6 20.6
2014-Jul-21 22:39 340 3 gusting 6 20.6
2014-Jul-21 22:23 006 3 gusting 8 21.1
2014-Jul-21 22:07 354 5 gusting 8 21.1
2014-Jul-21 21:52 341 5 gusting 8 21.1
2014-Jul-21 21:37 051 4 gusting 9 21.7
2014-Jul-21 21:22 360 5 gusting 13 21.7
2014-Jul-21 21:06 014 4 gusting 7 21.7
2014-Jul-21 20:50 039 7 gusting 15 22.2
2014-Jul-21 20:34 049 8 gusting 15 22.2
2014-Jul-21 20:20 027 7 gusting 12 22.2
2014-Jul-21 20:04 305 5 gusting 15 22.8